Tampa Knight Airport, FL

6:33 AM EDT on September 24, 2017 (GMT -0400)
Knight

Weather History for KTPF - September, 2017

Change the Weather History Date:

Thursday, September 14, 2017

  Actual Average (KTPA) Record (KTPA)
Temperature  
Mean Temperature 86 °F -  
Max Temperature 93 °F 87 °F 95 °F (1986)
Min Temperature 78 °F 73 °F 67 °F (1968)
Cooling Degree Days 20    
Growing Degree Days 36 (Base 50)    
Moisture  
Dew Point 78 °F    
Average Humidity 83    
Maximum Humidity 100    
Minimum Humidity 56    
Precipitation  
Precipitation 0.20 in - - ()
Sea Level Pressure  
Sea Level Pressure 29.97 in    
Wind  
Wind Speed 2 mph (ESE)    
Max Wind Speed 13 mph    
Max Gust Speed -    
Visibility 10 miles    
Events Rain    
Averages and records for this station are not official NWS values.
T = Trace of Precipitation, MM = Missing Value Source: NWS Daily Summary

Daily Weather History Graph

Daily Weather History Graph

Search for Another Location

Airport or City:

Trip Planner

Search our weather history database for the weather conditions in past years. The results will help you decide how hot, cold, wet, or windy it might be!

Date:

Astronomy

Sep. 14, 2017 Rise Set
Actual Time 7:14 AM EDT 7:35 PM EDT
Civil Twilight 6:51 AM EDT 7:58 PM EDT
Nautical Twilight 6:23 AM EDT 8:26 PM EDT
Astronomical Twilight 5:55 AM EDT 8:54 PM EDT
Moon 1:32 AM EDT (9/14) 3:29 PM EDT (9/14)
Length of Visible Light 13h 07m
Length of Day
12h 20m
Waning Crescent, 34% of the Moon is Illuminated
Sep 14
Waning Crescent
Sep 20
New
Sep 27
First Quarter
Oct 5
Full
Oct 12
Last Quarter

Hourly Weather History & Observations

Time (EDT) Temp. Heat Index Dew Point Humidity Pressure Visibility Wind Dir Wind Speed Gust Speed Precip Events Conditions
12:15 AM 80.6 °F 88.1 °F 78.8 °F 94% 29.96 in 10.0 mi Calm Calm - N/A   Mostly Cloudy
12:35 AM 80.6 °F 89.3 °F 80.6 °F 100% 29.96 in 10.0 mi Calm Calm - N/A   Overcast
12:55 AM 78.8 °F - 78.8 °F 100% 29.96 in 10.0 mi Calm Calm - N/A   Overcast
1:15 AM 80.6 °F 89.3 °F 80.6 °F 100% 29.96 in 10.0 mi Calm Calm - N/A   Overcast
1:35 AM 78.8 °F - 78.8 °F 100% 29.95 in 10.0 mi Calm Calm - N/A   Overcast
1:55 AM - - - N/A% 29.95 in 10.0 mi Calm Calm - N/A   Overcast
2:15 AM 78.8 °F - 78.8 °F 100% 29.94 in 10.0 mi Calm Calm - N/A   Overcast
2:35 AM 78.8 °F - 78.8 °F 100% 29.94 in 10.0 mi Calm Calm - N/A   Overcast
2:55 AM 78.8 °F - 78.8 °F 100% 29.94 in 10.0 mi Calm Calm - N/A   Overcast
3:15 AM 78.8 °F - 78.8 °F 100% 29.94 in 10.0 mi Calm Calm - N/A   Overcast
3:35 AM 78.8 °F - 78.8 °F 100% 29.94 in 10.0 mi East 3.5 mph - N/A   Overcast
3:55 AM 78.8 °F - 78.8 °F 100% 29.94 in 10.0 mi East 3.5 mph - N/A   Mostly Cloudy
4:15 AM 78.8 °F - 78.8 °F 100% 29.94 in 10.0 mi ENE 4.6 mph - N/A   Scattered Clouds
4:35 AM - - - N/A% 29.94 in 10.0 mi Calm Calm - N/A   Clear
4:55 AM - - - N/A% 29.94 in 10.0 mi Calm Calm - N/A   Clear
5:15 AM - - - N/A% 29.94 in 10.0 mi East 3.5 mph - N/A   Clear
5:35 AM - - - N/A% 29.95 in 10.0 mi East 3.5 mph - N/A   Clear
5:55 AM - - - N/A% 29.95 in 10.0 mi East 3.5 mph - N/A   Clear
6:15 AM - - - N/A% 29.96 in 10.0 mi ENE 3.5 mph - N/A   Clear
6:35 AM - - - N/A% 29.96 in 10.0 mi ENE 4.6 mph - N/A   Scattered Clouds
6:55 AM - - - N/A% 29.96 in 10.0 mi ENE 3.5 mph - N/A   Scattered Clouds
7:15 AM - - - N/A% 29.97 in 10.0 mi Calm Calm - N/A   Mostly Cloudy
7:35 AM - - - N/A% 29.97 in 10.0 mi ENE 4.6 mph - N/A   Overcast
7:55 AM 78.8 °F - 78.8 °F 100% 29.98 in 10.0 mi East 4.6 mph - N/A   Overcast
8:15 AM 78.8 °F - 78.8 °F 100% 29.98 in 10.0 mi East 4.6 mph - N/A   Mostly Cloudy
8:35 AM 80.6 °F 89.3 °F 80.6 °F 100% 29.99 in 10.0 mi East 5.8 mph - N/A   Mostly Cloudy
8:55 AM 80.6 °F 89.3 °F 80.6 °F 100% 29.99 in 10.0 mi ENE 5.8 mph - N/A   Mostly Cloudy
9:15 AM 82.4 °F 94.0 °F 80.6 °F 94% 30.00 in 10.0 mi East 4.6 mph - N/A   Overcast
9:35 AM 82.4 °F 92.4 °F 78.8 °F 89% 30.00 in 10.0 mi East 4.6 mph - N/A   Overcast
9:55 AM 82.4 °F 94.0 °F 80.6 °F 94% 30.01 in 10.0 mi East 3.5 mph - N/A   Overcast
10:15 AM 86.0 °F 99.3 °F 78.8 °F 79% 30.01 in 10.0 mi East 4.6 mph - N/A   Mostly Cloudy
10:35 AM 87.8 °F 102.5 °F 78.8 °F 75% 30.02 in 10.0 mi NE 4.6 mph - N/A   Mostly Cloudy
10:55 AM 87.8 °F 102.5 °F 78.8 °F 75% 30.02 in 10.0 mi Calm Calm - N/A   Scattered Clouds
11:15 AM 87.8 °F 102.5 °F 78.8 °F 75% 30.02 in 10.0 mi South 4.6 mph - N/A   Scattered Clouds
11:35 AM 87.8 °F 102.5 °F 78.8 °F 75% 30.01 in 10.0 mi South 3.5 mph - N/A   Mostly Cloudy
11:55 AM 87.8 °F 102.5 °F 78.8 °F 75% 30.01 in 10.0 mi SSW 5.8 mph - N/A   Overcast
12:15 PM 87.8 °F 102.5 °F 78.8 °F 75% 30.00 in 10.0 mi SSW 5.8 mph - N/A   Mostly Cloudy
12:35 PM 89.6 °F 104.7 °F 78.8 °F 70% 30.00 in 10.0 mi SW 4.6 mph - N/A   Scattered Clouds
12:55 PM 89.6 °F 102.2 °F 77.0 °F 66% 30.00 in 10.0 mi South 3.5 mph - N/A   Scattered Clouds
1:15 PM 89.6 °F 102.2 °F 77.0 °F 66% 29.99 in 10.0 mi South 3.5 mph - N/A   Mostly Cloudy
1:35 PM 89.6 °F 104.7 °F 78.8 °F 70% 29.98 in 10.0 mi SSW 3.5 mph - N/A   Mostly Cloudy
1:55 PM 89.6 °F 102.2 °F 77.0 °F 66% 29.97 in 10.0 mi SSW 3.5 mph - N/A   Clear
2:15 PM 89.6 °F 102.2 °F 77.0 °F 66% 29.96 in 10.0 mi Calm Calm - N/A   Clear
2:35 PM 89.6 °F 102.2 °F 77.0 °F 66% 29.96 in 10.0 mi South 3.5 mph - N/A   Clear
2:55 PM 91.4 °F 107.2 °F 78.8 °F 66% 29.95 in 10.0 mi SSW 3.5 mph - N/A   Clear
3:15 PM 91.4 °F 105.1 °F 77.0 °F 63% 29.94 in 10.0 mi South 4.6 mph - N/A   Scattered Clouds
3:35 PM 91.4 °F 105.1 °F 77.0 °F 63% 29.93 in 10.0 mi SW 4.6 mph - N/A   Scattered Clouds
3:55 PM 93.2 °F 105.0 °F 75.2 °F 56% 29.93 in 10.0 mi West 3.5 mph - N/A   Scattered Clouds
4:15 PM 93.2 °F 107.2 °F 77.0 °F 59% 29.92 in 10.0 mi WNW 5.8 mph - N/A   Scattered Clouds
4:35 PM 93.2 °F 105.0 °F 75.2 °F 56% 29.93 in 10.0 mi West 6.9 mph - N/A   Mostly Cloudy
4:55 PM 86.0 °F 95.1 °F 75.2 °F 70% 29.95 in 10.0 mi WSW 8.1 mph - N/A   Mostly Cloudy
5:15 PM 82.4 °F 89.5 °F 75.2 °F 79% 29.97 in 10.0 mi SW 6.9 mph - N/A   Overcast
5:35 PM 78.8 °F - 78.8 °F 100% 29.97 in 3.0 mi WNW 5.8 mph - 0.10 in Rain Light Rain
5:55 PM - - - N/A% 29.96 in 4.0 mi West 3.5 mph - 0.19 in Rain Rain
6:15 PM - - - N/A% 29.96 in 5.0 mi Calm Calm - 0.01 in Rain Rain
6:35 PM - - - N/A% 29.95 in 10.0 mi Calm Calm - 0.01 in   Mostly Cloudy
6:55 PM - - - N/A% 29.96 in 10.0 mi Calm Calm - 0.01 in   Scattered Clouds
7:15 PM - - - N/A% 29.96 in 10.0 mi Calm Calm - N/A   Mostly Cloudy
7:35 PM - - - N/A% 29.96 in 10.0 mi NE 3.5 mph - N/A   Mostly Cloudy
7:55 PM - - - N/A% 29.97 in 10.0 mi Calm Calm - N/A   Mostly Cloudy
8:15 PM - - - N/A% 29.96 in 10.0 mi Calm Calm - N/A   Overcast
8:35 PM - - - N/A% 29.97 in 10.0 mi Calm Calm - N/A   Mostly Cloudy
8:55 PM - - - N/A% 29.98 in 10.0 mi Calm Calm - N/A   Mostly Cloudy
9:15 PM - - - N/A% 29.99 in 10.0 mi Calm Calm - N/A   Mostly Cloudy
9:35 PM - - - N/A% 29.99 in 10.0 mi East 3.5 mph - N/A   Mostly Cloudy
9:55 PM - - - N/A% 29.98 in 10.0 mi East 3.5 mph - N/A   Mostly Cloudy
10:15 PM - - - N/A% 29.98 in 10.0 mi Calm Calm - N/A   Mostly Cloudy
10:35 PM - - - N/A% 29.99 in 10.0 mi East 3.5 mph - N/A   Mostly Cloudy
10:55 PM - - - N/A% 29.99 in 10.0 mi East 5.8 mph - N/A   Mostly Cloudy
11:15 PM - - - N/A% 30.00 in 10.0 mi East 12.7 mph - N/A   Mostly Cloudy
11:35 PM - - - N/A% 29.99 in 10.0 mi ESE 11.5 mph - N/A   Mostly Cloudy
11:55 PM 78.8 °F - 78.8 °F 100% 29.98 in 10.0 mi ESE 10.4 mph - N/A   Mostly Cloudy